Location: Deep South Regional Star Gaze
(30.9929°N, 90.9586°W)
Time: 19:36:11
(UTC-06:00)

Daily predictions for brighter satellites

Satellite Brightness Start Highest point End
(mag) Time Altitude Azimuth Time Altitude Azimuth Time Altitude Azimuth
Cosmos 2285 Rocket 4.0 18:07:32 10° S 18:13:49 78° ESE 18:20:11 10° NNE
Landsat 4 3.6 18:13:52 10° NNE 18:17:35 68° ESE 18:21:19 10° S
Cosmos 1867 3.7 18:12:18 10° NNW 18:17:46 86° WSW 18:23:12 10° SSE
MOS 1-B Rocket 4.2 18:12:48 10° SSE 18:19:38 64° ENE 18:25:34 10° N
CZ-3A R/B 4.0 18:15:17 10° SSW 18:19:39 35° SE 18:37:34 11° E
Cosmos 1371 Rocket 4.3 18:15:00 10° N 18:20:04 46° ENE 18:25:08 10° SE
Abrixas rocket 3.2 18:21:37 10° NNW 18:24:25 27° NE 18:27:12 10° E
SeaSat 1 4.1 18:22:06 10° E 18:24:48 15° NE 18:27:29 10° NNE
USA 215 3.3 18:19:27 10° NE 18:26:01 89° NW 18:32:33 10° SW
NOSS 3-2 (C) 3.4 18:20:49 10° SSW 18:26:37 88° WNW 18:32:57 10° NNE
DELTA 2 R/B (1) 3.6 18:22:12 10° WNW 18:27:46 83° NNE 18:33:20 10° ESE
COSMO-SKYMED 1 3.7 18:24:22 10° N 18:28:33 49° WNW 18:32:43 10° SSW
Cosmos 2219 Rocket 2.2 18:27:50 10° NNW 18:33:32 80° ENE 18:39:09 10° SSE
FALCON 9 R/B 3.9 18:30:27 10° W 18:36:48 74° N 18:57:36 16° E
Cosmos 2227 Rocket 2.3 18:32:28 10° SSW 18:38:06 82° WNW 18:43:47 10° NNE
SPOT 3 Rocket 3.5 18:33:19 10° SSE 18:38:27 68° ENE 18:43:37 10° N
Cosmos 1725 Rocket 4.5 18:32:55 10° NNW 18:39:10 67° W 18:45:20 10° S
GPS 2-04 Rocket1 3.0 18:36:01 10° WNW 18:39:44 58° SSW 18:43:17 10° SE
H-2A R/B 2.9 18:39:36 10° SSE 18:43:24 53° ENE 18:47:13 10° N
SL-8 R/B 3.7 18:39:12 10° SW 18:43:59 83° NW 18:48:30 11° NE
Cosmos 2237 Rocket 2.4 18:39:14 10° N 18:44:38 46° ENE 18:50:00 10° SE
SL-16 R/B 3.5 18:42:09 10° NNE 18:45:59 18° ENE 18:47:38 16° E
OAO 2 Rocket 3.5 18:41:27 10° SW 18:46:16 56° SSE 18:49:44 18° E
NOAA 12 4.3 18:42:47 10° S 18:48:03 76° WSW 18:53:22 10° NNW
Cosmos 2056 Rocket 3.5 18:44:12 10° N 18:49:37 71° ENE 18:55:00 10° SSE
FENGYUN 3A 4.4 18:46:51 10° S 18:52:07 57° W 18:57:26 10° NNW
Cosmos 2297 Rocket 2.5 18:46:59 10° SSW 18:52:36 71° WNW 18:58:16 10° NNE
CZ-2D R/B 4.4 18:53:26 22° E 18:54:06 23° ENE 18:57:12 10° NNE
Cosmos 1452 Rocket 4.3 18:51:29 10° N 18:55:59 28° ENE 18:58:46 18° ESE
Cosmos 405 3.3 18:54:33 10° SSW 18:58:00 68° W 19:01:29 10° N
Cosmos 1674 Rocket 3.6 18:53:49 10° N 18:58:02 50° E 19:02:13 10° SSE
Cosmos 1908 Rocket 3.8 18:53:49 10° SSE 18:58:05 46° E 19:02:22 10° NNE
Cosmos 1048 Rocket 4.5 18:54:45 10° SSE 18:59:39 38° E 19:04:33 10° NE
CENTAUR R/B 2.3 18:56:52 10° SSW 19:02:33 66° ESE 19:08:59 10° NE
Meteor 1-25 Rocket 4.1 19:01:25 10° S 19:06:55 72° E 19:12:27 10° NNE
Resurs 01 Rocket 3.9 19:09:59 10° NNE 19:09:59 10° NNE 19:10:00 10° NNE
Cosmos 1733 Rocket 4.2 19:03:36 10° SSW 19:07:44 45° W 19:11:54 10° N
Geosat 4.0 19:03:31 10° NNE 19:08:30 62° ESE 19:13:27 10° SSW
Cosmos 1812 2.6 19:05:26 10° N 19:09:17 66° E 19:13:07 10° SSE
Gbstr 26 Del rocket 4.4 19:07:19 10° S 19:09:03 17° SE 19:09:03 17° SE
Shenzhou-11 Module 2.9 19:07:26 10° NW 19:10:03 32° NNE 19:10:03 32° NNE
Cosmos 2333 Rocket 3.2 19:09:54 10° NNW 19:15:19 49° WSW 19:20:43 10° S
Cosmos 1437 Rocket 4.0 19:13:25 10° SSE 19:15:30 26° SE 19:15:30 26° SE
ERS-2 2.4 19:14:04 10° S 19:17:43 70° WSW 19:21:25 10° NNW
NOSS 0 Rocket 4.4 19:12:45 10° NNW 19:18:51 62° WSW 19:24:57 10° S
Cosmos 158 Rocket 3.8 19:14:39 10° SSW 19:19:35 83° WNW 19:24:29 10° NNE
Cosmos 1420 Rocket 4.5 19:14:45 10° N 19:19:39 38° ENE 19:20:16 36° E
Tiangong 2 3.5 19:20:15 10° NNW 19:21:24 14° N 19:21:24 14° N
FREGAT/IRIS 3.6 19:20:34 10° S 19:23:24 46° W 19:26:17 10° NNW
Tsikada Rocket 4.2 19:17:43 10° SSE 19:23:47 48° E 19:29:54 10° NNE
Iridium 4 Rocket 3.1 19:19:34 10° N 19:24:28 73° E 19:28:54 10° S
Okean 3 3.5 19:26:34 10° N 19:30:44 77° W 19:34:53 10° S
Cosmos 2227 4.5 19:29:34 10° S 19:34:38 44° ESE 19:34:38 44° ESE
Cosmos 1633 4.0 19:33:22 10° SSW 19:36:40 37° W 19:40:00 10° NNW
Thor Agena Rocket 3.9 19:33:16 10° N 19:38:17 62° WNW 19:43:15 10° SSW
USA 32 4.1 19:37:09 10° S 19:42:22 76° W 19:47:37 10° N
Sich 1 Rocket 4.0 19:38:29 10° SSW 19:42:59 65° W 19:47:28 10° N
Lacrosse 5 1.9 19:39:53 10° NW 19:44:57 78° SW 19:46:02 54° SSE
SJ-6B 3.5 19:45:18 22° SSW 19:47:28 49° W 19:51:08 10° NNW
Envisat 2.9 19:43:05 14° SSE 19:47:32 88° W 19:52:38 10° NNW
Cosmos 1269 Rocket 3.9 19:43:09 10° SSW 19:48:26 90° WNW 19:50:14 43° NNE
Cosmos 1464 Rocket 4.2 19:45:33 10° NNW 19:51:37 67° W 19:57:41 10° S
H-2A R/B 4.1 19:50:08 10° SSW 19:53:24 13° S 19:53:24 13° S
Cosmos 1782 Rocket 4.0 19:50:56 10° SSW 19:55:20 62° W 19:56:14 50° NNW
Cosmos 1378 Rocket 4.4 19:54:09 10° NNW 19:58:24 50° W 20:01:26 18° SSW
SeaSat 1 2.8 20:00:39 47° SSW 20:01:48 60° WSW 20:06:41 10° NNW
Cosmos 44 4.3 20:03:31 10° NNW 20:06:47 40° NNW 20:06:47 40° NNW
Sakura Rocket 4.4 20:03:07 10° WSW 20:09:46 68° SSE 20:10:30 65° SE
IUS-1 SRM-2 4.5 19:46:29 10° W 20:13:49 51° SSW 20:15:28 44° S
ATLAS 2A CENTAUR R/B 4.5 20:09:38 10° W 20:13:57 14° SW 20:16:41 10° SSW
SL-16 R/B 3.0 20:24:53 10° NNW 20:29:37 47° W 20:29:37 47° W
USA 267 4.4 20:40:30 31° N 20:40:30 31° N 20:43:59 10° NNW
CZ-3C R/B 3.5 20:48:35 10° WSW 21:39:38 - E 20:52:34 44° SSW
